Wind_Speed
45 46 47 48 49 50 51 53 53 53 52 52 53 53 54 55 56 56 56 55 54 54 53 52 52 52 52 52 53 53 53 53 53 52 52 51 52 52
46 46 47 49 50 50 51 53 54 55 54 52 52 52 53 54 54 54 54 53 52 52 50 50 49 49 49 48 48 48 49 49 49 48 47 48 48 49
46 46 47 48 49 50 51 52 53 54 54 51 51 51 51 51 50 51 51 50 49 48 47 47 46 45 44 43 43 44 44 43 44 44 42 43 44 46
46 47 47 49 49 50 51 52 52 53 52 50 49 48 48 47 47 47 47 46 44 44 43 43 42 41 40 39 39 40 40 40 40 40 40 40 41 42
46 47 48 49 49 50 50 51 51 51 50 49 47 46 45 45 44 43 43 42 41 40 39 39 39 38 37 36 36 36 35 36 37 37 38 37 37 37
46 47 47 48 48 48 48 48 48 48 47 46 44 43 42 41 41 40 39 38 37 36 35 35 34 34 33 32 31 31 31 33 34 34 34 34 35 35
46 46 46 46 46 46 46 46 46 46 45 43 42 41 40 38 37 37 36 34 33 33 32 31 31 30 29 28 28 28 27 28 29 30 31 31 32 33
45 44 44 44 44 45 45 45 44 44 43 41 40 39 37 36 35 34 32 31 31 31 30 28 28 27 26 26 27 26 26 27 27 26 27 28 28 29
43 42 42 42 43 43 43 43 42 42 41 39 38 38 35 33 33 32 30 29 28 27 26 25 24 24 25 25 26 26 26 26 27 26 25 26 26 28
41 41 41 42 42 41 40 40 39 38 38 37 37 35 34 32 31 30 28 27 25 23 23 22 22 23 24 24 24 25 25 26 26 25 24 23 24 25
40 40 40 40 40 40 39 38 37 36 36 36 35 33 32 32 31 28 26 25 22 21 22 22 22 22 22 22 23 23 24 24 24 22 22 22 22 22
38 37 37 38 38 38 37 36 35 34 34 33 31 30 31 30 28 26 24 22 21 20 20 21 21 21 22 22 23 22 22 22 21 21 20 20 19 18
35 34 35 35 35 35 35 35 34 34 33 31 29 29 28 26 24 23 21 21 19 18 18 18 19 19 20 20 21 21 21 20 19 19 19 19 18 17
33 32 32 32 32 32 32 32 32 32 30 28 27 27 25 23 22 21 20 20 18 17 16 16 17 17 17 17 17 18 18 18 17 17 17 18 17 17
31 31 31 31 31 31 31 30 30 29 28 26 25 23 22 21 20 19 18 17 16 14 14 15 14 13 13 13 13 14 15 15 15 15 16 16 16 15
30 30 30 31 30 30 29 29 28 27 25 23 22 20 20 19 18 17 15 14 14 14 14 13 12 11 11 10 10 10 11 12 13 14 14 15 15 14
30 29 30 29 29 28 27 26 25 24 22 20 19 19 18 17 16 15 13 12 12 12 12 12 12 11 10 10 9 9 9 9 11 12 13 13 13 13
29 28 28 27 27 26 24 23 23 22 20 18 17 16 16 15 14 12 12 11 11 12 12 11 11 10 9 9 8 8 8 9 10 10 11 11 11 11
27 27 26 26 26 24 23 22 21 19 18 17 15 14 14 13 12 11 10 10 10 10 10 10 9 9 9 9 9 8 8 8 8 9 9 10 9 9
26 26 25 25 24 23 21 20 19 18 16 15 14 13 13 12 11 10 10 10 10 9 9 9 9 8 8 8 8 8 8 7 7 7 7 8 7 7
26 26 25 24 23 21 20 19 18 16 14 13 12 12 12 11 10 9 9 9 9 9 9 9 8 7 7 7 7 7 7 6 6 6 6 5 4 5
25 24 23 22 21 20 18 17 15 13 13 12 12 12 11 10 10 9 9 9 9 8 7 7 7 6 6 6 5 5 5 5 6 6 5 4 5 5
24 23 22 20 19 18 16 14 13 12 12 12 12 12 12 11 10 9 8 8 7 7 7 6 6 6 6 6 6 6 6 6 7 7 7 7 7 6
Wind_Direction
290 291 292 293 294 294 294 294 294 293 292 293 292 291 290 289 287 286 285 283 282 280 279 278 277 275 274 272 269 267 265 264 263 262 261 259 259 258
290 291 293 294 294 294 294 295 296 296 296 295 293 292 292 291 289 286 285 284 283 281 280 279 278 277 275 273 270 268 265 263 262 262 260 259 259 259
291 292 293 294 294 295 295 296 297 297 297 297 295 294 294 293 290 288 286 285 283 280 279 278 278 277 274 273 271 268 265 263 261 260 259 259 259 258
292 293 294 295 295 296 297 297 297 297 298 298 296 295 294 293 292 289 286 286 284 282 280 279 277 275 273 272 272 268 265 262 260 258 258 259 260 258
293 294 295 295 296 297 298 298 298 298 299 298 297 296 295 294 292 289 287 285 284 283 282 280 277 274 272 270 269 267 264 260 259 259 259 260 261 258
294 294 295 296 297 298 298 298 299 299 300 299 299 298 297 295 292 290 289 287 285 283 282 280 277 275 270 267 266 265 264 260 257 258 260 261 259 257
294 295 296 297 297 298 299 299 300 300 300 300 300 300 298 295 293 292 291 288 285 283 281 278 276 273 268 265 263 262 261 261 260 259 260 259 256 257
295 295 296 296 297 298 299 300 301 301 301 302 301 300 299 295 294 293 292 289 285 282 278 274 273 271 269 265 262 260 261 262 262 263 261 256 256 257
295 296 296 296 297 298 299 300 301 302 302 301 301 301 299 297 295 293 292 290 288 283 275 272 271 271 268 265 263 261 263 265 266 265 261 257 256 256
296 296 295 296 297 298 298 300 301 302 301 300 301 299 297 296 294 293 292 291 289 282 276 273 272 268 265 264 263 263 264 265 265 262 259 259 258 258
296 295 295 296 297 298 299 300 301 301 300 300 300 298 298 296 294 293 293 292 289 283 276 273 271 268 267 264 266 267 266 265 261 258 258 256 256 257
296 296 296 297 298 299 300 301 301 301 301 300 299 299 299 297 293 293 292 291 287 283 278 276 274 272 269 265 267 267 267 265 258 254 253 252 253 254
296 297 298 299 300 300 300 301 301 301 300 298 298 299 299 296 293 291 290 290 289 285 280 278 276 274 271 268 267 266 264 261 255 251 250 250 251 253
298 299 300 301 302 303 303 302 302 302 300 298 299 299 298 297 292 289 289 290 288 285 282 281 279 276 272 270 268 264 260 256 252 249 248 249 251 254
299 301 302 302 303 303 303 303 303 303 301 299 300 300 299 297 294 291 288 285 283 285 286 283 281 278 276 274 267 258 251 247 245 246 248 248 251 255
299 300 301 303 304 303 304 304 304 304 302 300 300 299 299 297 295 292 287 283 281 281 282 282 280 274 272 271 266 253 244 244 246 247 246 246 251 254
299 300 302 303 305 305 305 305 305 305 303 300 300 300 299 296 293 289 285 283 280 279 282 282 279 272 267 265 260 253 252 253 253 251 246 249 252 254
300 301 302 303 305 305 305 304 305 304 302 301 300 298 297 296 293 287 282 281 282 284 284 280 275 266 264 262 254 252 259 263 258 250 246 249 251 249
301 301 303 304 305 306 304 304 303 301 299 300 297 296 296 296 292 287 284 282 283 285 287 283 275 262 259 258 251 252 261 263 257 249 247 250 249 240
302 302 303 304 305 305 303 303 302 300 299 297 295 296 295 294 292 289 287 283 285 286 288 286 277 262 254 252 250 254 255 254 250 247 248 245 238 230
303 302 303 303 304 304 302 300 299 296 295 293 294 297 295 291 287 285 287 288 289 290 290 286 272 253 251 252 250 248 244 237 228 226 230 223 212 207
303 302 302 304 304 304 302 298 295 292 294 293 293 294 292 288 284 285 290 288 284 289 288 279 264 252 250 246 243 234 221 210 205 203 200 190 182 177
302 301 302 302 302 301 298 293 289 291 293 291 290 289 288 286 283 285 288 284 282 287 285 277 263 248 238 229 220 206 194 191 189 183 168 159 156 157
Height
5655 5651 5647 5643 5639 5634 5629 5624 5620 5617 5617 5614 5607 5601 5594 5589 5584 5579 5576 5572 5569 5567 5565 5563 5561 5559 5558 5558 5558 5559 5561 5562 5565 5567 5569 5572 5575 5578
5644 5640 5636 5632 5627 5622 5617 5612 5605 5600 5598 5597 5592 5586 5580 5574 5568 5563 5560 5557 5554 5551 5549 5547 5546 5544 5543 5542 5542 5543 5545 5547 5549 5552 5554 5556 5559 5563
5632 5629 5625 5620 5616 5611 5605 5600 5594 5587 5582 5581 5577 5571 5565 5560 5555 5550 5545 5542 5540 5537 5535 5533 5532 5530 5529 5529 5529 5530 5532 5533 5536 5538 5540 5543 5546 5549
5622 5618 5614 5609 5604 5599 5594 5588 5582 5576 5569 5566 5564 5559 5553 5547 5542 5537 5533 5530 5527 5525 5522 5520 5519 5518 5517 5517 5518 5519 5520 5522 5524 5526 5529 5532 5534 5536
5610 5606 5602 5597 5593 5587 5582 5576 5571 5565 5558 5553 5550 5546 5541 5535 5530 5526 5522 5519 5516 5513 5511 5510 5508 5507 5507 5507 5507 5508 5509 5512 5514 5516 5518 5520 5523 5525
5599 5595 5590 5586 5581 5576 5571 5565 5560 5554 5548 5543 5538 5534 5530 5524 5519 5515 5512 5509 5506 5503 5501 5500 5498 5497 5497 5497 5499 5499 5500 5502 5505 5507 5509 5511 5513 5515
5588 5584 5579 5574 5569 5564 5559 5555 5549 5544 5538 5533 5529 5524 5520 5515 5510 5506 5502 5499 5497 5494 5493 5491 5490 5489 5489 5490 5490 5492 5493 5495 5496 5498 5500 5502 5503 5505
5577 5573 5568 5564 5559 5554 5549 5544 5539 5533 5528 5524 5519 5515 5511 5506 5502 5497 5494 5491 5489 5487 5484 5484 5483 5483 5483 5483 5484 5485 5487 5488 5489 5490 5492 5493 5495 5496
5566 5562 5558 5554 5549 5545 5540 5535 5530 5524 5519 5514 5510 5506 5502 5498 5494 5490 5487 5483 5481 5479 5477 5477 5477 5476 5477 5477 5478 5480 5480 5481 5482 5483 5484 5486 5487 5489
5555 5552 5548 5544 5539 5535 5531 5526 5521 5516 5511 5507 5502 5498 5494 5490 5486 5483 5480 5477 5474 5472 5471 5471 5471 5471 5472 5472 5472 5473 5474 5475 5475 5476 5478 5479 5480 5482
5546 5542 5538 5534 5530 5525 5521 5517 5513 5508 5503 5499 5494 5490 5486 5482 5479 5476 5473 5470 5468 5467 5465 5465 5465 5465 5466 5466 5466 5466 5467 5468 5469 5470 5471 5473 5474 5475
5537 5532 5528 5524 5520 5516 5512 5508 5505 5501 5496 5492 5487 5483 5480 5476 5472 5470 5467 5465 5463 5462 5460 5459 5459 5459 5460 5461 5460 5460 5461 5462 5463 5464 5466 5468 5469 5470
5528 5524 5520 5516 5512 5508 5503 5500 5496 5492 5488 5484 5481 5477 5473 5470 5467 5464 5462 5460 5458 5456 5455 5454 5454 5453 5453 5454 5455 5455 5455 5456 5457 5459 5461 5462 5464 5465
5519 5515 5511 5508 5504 5500 5496 5492 5488 5484 5481 5477 5474 5471 5467 5464 5462 5459 5457 5455 5453 5451 5450 5449 5449 5448 5448 5449 5449 5449 5450 5451 5453 5454 5456 5457 5458 5460
5510 5507 5503 5500 5496 5493 5489 5484 5481 5477 5474 5471 5468 5465 5462 5459 5457 5455 5453 5450 5449 5447 5446 5445 5444 5444 5444 5444 5444 5445 5446 5447 5448 5450 5452 5453 5454 5456
5503 5500 5496 5493 5489 5485 5481 5478 5474 5470 5467 5464 5462 5459 5457 5455 5452 5450 5449 5447 5446 5444 5443 5442 5441 5441 5441 5441 5441 5441 5442 5444 5445 5447 5448 5449 5450 5451
5496 5493 5489 5486 5482 5478 5475 5471 5468 5464 5461 5459 5457 5455 5452 5450 5448 5446 5445 5444 5443 5441 5440 5439 5438 5438 5438 5438 5439 5439 5440 5441 5442 5444 5445 5446 5446 5448
5489 5486 5482 5479 5476 5472 5469 5466 5462 5459 5457 5454 5452 5450 5448 5446 5444 5443 5442 5441 5439 5438 5437 5436 5435 5435 5435 5435 5436 5437 5438 5439 5440 5441 5442 5443 5443 5444
5482 5479 5476 5473 5469 5466 5463 5460 5457 5455 5452 5450 5448 5446 5444 5443 5441 5440 5439 5438 5437 5436 5434 5433 5432 5432 5433 5434 5434 5434 5436 5437 5437 5438 5439 5440 5441 5442
5475 5472 5469 5466 5463 5460 5458 5455 5453 5450 5448 5446 5445 5443 5441 5440 5438 5437 5436 5435 5434 5433 5432 5430 5430 5430 5431 5432 5432 5432 5433 5434 5435 5436 5436 5437 5438 5440
5469 5466 5463 5460 5457 5455 5452 5450 5448 5446 5445 5443 5441 5440 5438 5437 5435 5434 5433 5432 5431 5430 5429 5428 5427 5427 5428 5429 5430 5430 5431 5431 5433 5434 5435 5436 5437 5439
5463 5460 5457 5455 5452 5450 5448 5446 5444 5443 5441 5440 5438 5437 5435 5434 5433 5432 5431 5430 5429 5428 5427 5426 5426 5426 5426 5427 5428 5428 5429 5430 5431 5432 5434 5436 5437 5438
5457 5454 5452 5449 5447 5445 5443 5442 5440 5439 5437 5436 5435 5434 5433 5431 5430 5429 5428 5427 5427 5426 5425 5425 5424 5424 5424 5425 5426 5427 5428 5429 5431 5432 5434 5435 5437 5438